| time (UTC) | temp C | wind direction | speed KPH | gust KPH | rain 1hr cm | rain 24hr cm | rain mn cm | humidity % | barometer mb |
| 20260504174600 | 23 | 0 | 0.0 | 8.0 | 0.00 | 0.00 | 0.00 | 41 | 1011.2 |
| 20260504173059 | 24 | 261 | 0.0 | 3.2 | 0.00 | 0.00 | 0.00 | 37 | 1011.6 |
| 20260504171559 | 23 | 0 | 0.0 | 4.8 | 0.00 | 0.00 | 0.00 | 40 | 1011.8 |
| 20260504160119 | 22 | 0 | 0.0 | 3.2 | 0.00 | 0.00 | 0.00 | 40 | 1012.5 |
| 20260504100109 | 9 | 0 | 0.0 | 0.0 | 0.00 | 0.00 | 0.00 | 65 | 1013.9 |
| 20260504090123 | 10 | 0 | 0.0 | 0.0 | 0.00 | 0.00 | 0.00 | 65 | 1014.3 |
| 20260504081558 | 10 | 0 | 0.0 | 4.8 | 0.00 | 0.00 | 0.00 | 62 | 1014.3 |
| 20260504050106 | 7 | 0 | 0.0 | 0.0 | 0.00 | 0.00 | 0.00 | 73 | 1014.7 |
| 20260504044620 | 7 | 0 | 0.0 | 0.0 | 0.00 | 0.00 | 0.00 | 73 | 1014.8 |
| 20260504043101 | 6 | 0 | 0.0 | 0.0 | 0.00 | 0.00 | 0.00 | 73 | 1014.8 |
| 20260504041558 | 7 | 0 | 0.0 | 0.0 | 0.00 | 0.00 | 0.00 | 70 | 1014.7 |
| 20260504040120 | 7 | 0 | 0.0 | 0.0 | 0.00 | 0.00 | 0.00 | 70 | 1014.6 |
| 20260504034615 | 7 | 0 | 0.0 | 0.0 | 0.00 | 0.00 | 0.00 | 66 | 1014.8 |
| 20260504033059 | 7 | 0 | 0.0 | 0.0 | 0.00 | 0.00 | 0.00 | 63 | 1014.7 |
| 20260504031600 | 8 | 0 | 0.0 | 0.0 | 0.00 | 0.00 | 0.00 | 63 | 1014.5 |
| 20260504024604 | 8 | 0 | 0.0 | 0.0 | 0.00 | 0.00 | 0.00 | 61 | 1014.3 |
| 20260504023058 | 8 | 0 | 0.0 | 0.0 | 0.00 | 0.00 | 0.00 | 61 | 1014.3 |
| 20260504021558 | 8 | 0 | 0.0 | 0.0 | 0.00 | 0.00 | 0.00 | 60 | 1014.2 |
| 20260504020100 | 8 | 0 | 0.0 | 0.0 | 0.00 | 0.00 | 0.00 | 58 | 1014.0 |
| 20260504014559 | 9 | 0 | 0.0 | 0.0 | 0.00 | 0.00 | 0.00 | 58 | 1013.9 |
| 20260504013118 | 10 | 0 | 0.0 | 0.0 | 0.00 | 0.00 | 0.00 | 57 | 1013.9 |
| 20260504011603 | 10 | 0 | 0.0 | 0.0 | 0.00 | 0.00 | 0.00 | 56 | 1013.8 |
| 20260504010107 | 11 | 0 | 0.0 | 0.0 | 0.00 | 0.00 | 0.00 | 53 | 1013.8 |
| 20260504004610 | 11 | 0 | 0.0 | 0.0 | 0.00 | 0.00 | 0.00 | 50 | 1013.8 |
| 20260504003059 | 12 | 0 | 0.0 | 0.0 | 0.00 | 0.00 | 0.00 | 47 | 1013.6 |
| 20260504001608 | 12 | 0 | 0.0 | 0.0 | 0.00 | 0.00 | 0.00 | 46 | 1013.6 |
| 20260504000136 | 13 | 0 | 0.0 | 0.0 | 0.00 | 0.00 | 0.00 | 43 | 1013.4 |
| 20260503234608 | 14 | 0 | 0.0 | 0.0 | 0.00 | 0.00 | 0.00 | 42 | 1013.3 |
| 20260503233109 | 14 | 0 | 0.0 | 0.0 | 0.00 | 0.00 | 0.00 | 42 | 1013.2 |
| 20260503231559 | 15 | 0 | 0.0 | 0.0 | 0.00 | 0.00 | 0.00 | 41 | 1013.0 |
| 20260503230109 | 15 | 0 | 0.0 | 0.0 | 0.00 | 0.00 | 0.00 | 40 | 1013.0 |
| 20260503224559 | 15 | 0 | 0.0 | 0.0 | 0.00 | 0.00 | 0.00 | 39 | 1013.0 |
| 20260503223102 | 15 | 0 | 0.0 | 1.6 | 0.00 | 0.00 | 0.00 | 37 | 1013.1 |
| 20260503221605 | 16 | 0 | 0.0 | 1.6 | 0.00 | 0.00 | 0.00 | 36 | 1013.1 |
| 20260503220121 | 16 | 0 | 0.0 | 1.6 | 0.00 | 0.00 | 0.00 | 37 | 1013.1 |
| 20260503214601 | 16 | 171 | 0.0 | 0.0 | 0.00 | 0.00 | 0.00 | 37 | 1013.1 |
| 20260503213102 | 16 | 0 | 0.0 | 3.2 | 0.00 | 0.00 | 0.00 | 36 | 1013.2 |
| 20260503211559 | 16 | 0 | 0.0 | 1.6 | 0.00 | 0.00 | 0.00 | 37 | 1013.2 |
| 20260503210059 | 16 | 0 | 0.0 | 6.4 | 0.00 | 0.00 | 0.00 | 37 | 1013.2 |
| 20260503204604 | 17 | 0 | 0.0 | 1.6 | 0.00 | 0.00 | 0.00 | 37 | 1013.4 |
| 20260503203100 | 17 | 0 | 0.0 | 1.6 | 0.00 | 0.00 | 0.00 | 36 | 1013.4 |
| 20260503201558 | 17 | 0 | 0.0 | 1.6 | 0.00 | 0.00 | 0.00 | 37 | 1013.6 |
| 20260503200104 | 17 | 0 | 0.0 | 8.0 | 0.00 | 0.00 | 0.00 | 39 | 1013.8 |
| 20260503194603 | 17 | 0 | 0.0 | 4.8 | 0.00 | 0.00 | 0.00 | 37 | 1014.0 |
| 20260503193100 | 17 | 0 | 0.0 | 4.8 | 0.00 | 0.00 | 0.00 | 39 | 1014.1 |
| 20260503191558 | 16 | 0 | 0.0 | 6.4 | 0.00 | 0.00 | 0.00 | 37 | 1014.4 |
| 20260503190059 | 17 | 0 | 0.0 | 3.2 | 0.00 | 0.00 | 0.00 | 40 | 1014.6 |
| 20260503184605 | 16 | 0 | 0.0 | 4.8 | 0.00 | 0.00 | 0.00 | 42 | 1014.6 |
| 20260503183058 | 16 | 0 | 0.0 | 3.2 | 0.00 | 0.00 | 0.00 | 41 | 1014.9 |
| 20260503181603 | 16 | 0 | 0.0 | 6.4 | 0.00 | 0.00 | 0.00 | 41 | 1015.1 |
| 20260503180116 | 16 | 0 | 0.0 | 3.2 | 0.00 | 0.00 | 0.00 | 40 | 1015.2 |